ATLAS 5 CENTAUR DEB, 46846

Orbit data source: Space-Track

ATLAS 5 CENTAUR DEB, 46846 is space debris in HEO originally from a launch on Wed, 17 Oct 2018 UTC launched from the Air Force Eastern Test Range (AFETR). Debris objects in space refer to the collection of defunct objects orbiting the Earth. Examples of debris include non-operational satellites, rocket bodies, and fragments generated from explosions, collisions, or faulty payload assembly.

Loading next visibility...
ATLAS 5 CENTAUR DEB details
Identifier
46846, 2018-079DB
Orbit
HEO
Last TLE update2 days ago
Origin
Flag of USULA (US)
ManufacturerULA Decatur
MissionSpacecraft
Bus & MotorUnknown
MassUnknown
Launch date (UTC)
2018-10-17 (6 years ago)
Launch vehicleUnknown
Launch site
Air Force Eastern Test Range (AFETR)
Object type
Payload
Rocket body
Debris
Shape & HBRUnknown
Radar Cross SectionRCS unknown

Expand to show TLE details & history

TLE from 2 days ago
0 ATLAS 5 CENTAUR DEB
1 46846U 18079DB  24335.74322042 -.00000081  00000-0  00000+0 0  9993
2 46846  11.1900 106.4257 4868528 179.0842 182.3091  1.71850701 25617
Epoch: 2024-11-30T17:50Z
Definitive object data (Epoch: 2024-11-30T17:50:14.244Z)
Latitude-0.00003°
Longitude128.70824°
Altitude37,400.617 km
Speed2.161 km/s
True Right ascension07h 05m 26s
True Declination0° 00' 00"
Sunlit
Object was in daylight at TLE epoch
Visualization TLE readout
Latitude-7.60756°
Longitude86.08022°
Altitude28,718.918 km
Speed3.029 km/s
Apparent Right ascension04h 00m 07s
Apparent Declination-16° 00' 34"
Sunlit
Object is in daylight
Visualization observer readout
Local Sidereal Time05:49:15
Azimuth210.113° SW
Elevation28.571°
Doppler factor1
Orbital elements
Apogee altitude37,400.992 km
Perigee altitude8,731.05 km
Semi-major axis29,444.158 km
Eccentricity0.4868528
Inclination11.19°
RAAN106.4257°
Arg. of periapsis179.0842°
True anomaly180.91242°
Mean anomaly182.3091°
Eccentric anomaly181.55307°
Mean motion0.42958 °/min
BSTARUnknown
Orbital period838.03 mins
Loading maneuver chart data...

ATLAS 5 CENTAUR DEB Visibility forecast

Observer location: undefined°, undefined

Span
Click to sort rows by Start time (UTC) header in descending order
Start Az.
Max El. time (UTC)
Max El. Az.
Max El.
End time (UTC)
End Az.
636 mins2024-12-02 08:03:04.970Z210.102° SW2024-12-02 17:48:04.970Z198.266° SSW34.936°2024-12-02 18:39:04.970Z126.325° SE
|